| time (UTC) | temp F | wind direction | speed knots | gust knots | rain 1hr in | rain 24hr in | rain mn in | humidity % | barometer mb |
| 20260507150028 | 61 | 186 | 3.5 | 7.0 | 0.00 | 0.00 | 0.00 | 46 | 1019.4 |
| 20260507145528 | 60 | 196 | 1.7 | 5.2 | 0.00 | 0.00 | 0.00 | 46 | 1019.5 |
| 20260507145028 | 60 | 197 | 1.7 | 5.2 | 0.00 | 0.00 | 0.00 | 47 | 1019.5 |
| 20260507144528 | 59 | 219 | 2.6 | 5.2 | 0.00 | 0.00 | 0.00 | 49 | 1019.6 |
| 20260507144028 | 59 | 181 | 2.6 | 5.2 | 0.00 | 0.00 | 0.00 | 50 | 1019.6 |
| 20260507143528 | 59 | 193 | 3.5 | 7.8 | 0.00 | 0.00 | 0.00 | 51 | 1019.6 |
| 20260507141028 | 56 | 197 | 0.9 | 3.5 | 0.00 | 0.00 | 0.00 | 62 | 1019.7 |
| 20260507140528 | 56 | 225 | 1.7 | 4.3 | 0.00 | 0.00 | 0.00 | 63 | 1019.6 |
| 20260507140028 | 55 | 241 | 0.9 | 5.2 | 0.00 | 0.00 | 0.00 | 64 | 1019.7 |
| 20260507135528 | 55 | 194 | 1.7 | 5.2 | 0.00 | 0.00 | 0.00 | 65 | 1019.6 |
| 20260507135028 | 54 | 205 | 0.0 | 2.6 | 0.00 | 0.00 | 0.00 | 67 | 1019.6 |
| 20260507134528 | 54 | 222 | 0.9 | 2.6 | 0.00 | 0.00 | 0.00 | 68 | 1019.6 |
| 20260507134028 | 53 | 235 | 0.0 | 0.9 | 0.00 | 0.00 | 0.00 | 71 | 1019.6 |
| 20260507133528 | 52 | 241 | 0.9 | 2.6 | 0.00 | 0.00 | 0.00 | 72 | 1019.5 |
| 20260507133028 | 52 | 207 | 0.0 | 2.6 | 0.00 | 0.00 | 0.00 | 76 | 1019.5 |
| 20260507132528 | 51 | 227 | 0.0 | 1.7 | 0.00 | 0.00 | 0.00 | 80 | 1019.5 |
| 20260507132028 | 50 | 242 | 0.0 | 1.7 | 0.00 | 0.00 | 0.00 | 82 | 1019.5 |
| 20260507131528 | 49 | 234 | 0.0 | 1.7 | 0.00 | 0.00 | 0.00 | 84 | 1019.6 |
| 20260507131028 | 48 | 224 | 0.0 | 0.9 | 0.00 | 0.00 | 0.00 | 87 | 1019.6 |
| 20260507130528 | 47 | 245 | 0.0 | 0.9 | 0.00 | 0.00 | 0.00 | 88 | 1019.6 |
| 20260507130028 | 47 | 259 | 0.0 | 0.0 | 0.00 | 0.00 | 0.00 | 91 | 1019.4 |
| 20260507125528 | 46 | 259 | 0.9 | 1.7 | 0.00 | 0.00 | 0.00 | 92 | 1019.2 |
| 20260507125028 | 45 | 227 | 0.0 | 1.7 | 0.00 | 0.00 | 0.00 | 93 | 1019.2 |
| 20260507124528 | 44 | 222 | 0.0 | 0.9 | 0.00 | 0.00 | 0.00 | 94 | 1019.1 |
| 20260507124028 | 44 | 300 | 0.0 | 0.0 | 0.00 | 0.00 | 0.00 | 94 | 1019.0 |
| 20260507123528 | 44 | 274 | 0.0 | 0.0 | 0.00 | 0.00 | 0.00 | 94 | 1019.1 |
| 20260507120528 | 42 | 255 | 0.0 | 0.9 | 0.00 | 0.00 | 0.00 | 94 | 1018.9 |
| 20260507120028 | 42 | 262 | 0.0 | 0.9 | 0.00 | 0.00 | 0.00 | 94 | 1018.7 |
| 20260507115528 | 42 | 267 | 0.0 | 1.7 | 0.00 | 0.00 | 0.00 | 94 | 1018.6 |
| 20260507115028 | 42 | 265 | 0.0 | 1.7 | 0.00 | 0.00 | 0.00 | 94 | 1018.6 |
| 20260507114528 | 43 | 252 | 0.0 | 0.9 | 0.00 | 0.00 | 0.00 | 94 | 1018.5 |
| 20260507114028 | 43 | 255 | 0.0 | 1.7 | 0.00 | 0.00 | 0.00 | 94 | 1018.6 |
| 20260507113528 | 43 | 252 | 0.0 | 1.7 | 0.00 | 0.00 | 0.00 | 94 | 1018.6 |
| 20260507113028 | 43 | 248 | 0.0 | 0.9 | 0.00 | 0.00 | 0.00 | 94 | 1018.6 |
| 20260507112528 | 43 | 252 | 0.0 | 1.7 | 0.00 | 0.00 | 0.00 | 93 | 1018.6 |
| 20260507112028 | 43 | 252 | 0.0 | 1.7 | 0.00 | 0.00 | 0.00 | 93 | 1018.5 |
| 20260507111528 | 43 | 243 | 0.0 | 0.9 | 0.00 | 0.00 | 0.00 | 94 | 1018.5 |
| 20260507111028 | 43 | 252 | 0.0 | 1.7 | 0.00 | 0.00 | 0.00 | 93 | 1018.5 |
| 20260507110528 | 44 | 239 | 0.0 | 1.7 | 0.00 | 0.00 | 0.00 | 93 | 1018.6 |
| 20260507110028 | 44 | 252 | 0.0 | 1.7 | 0.00 | 0.00 | 0.00 | 93 | 1018.5 |
| 20260507105528 | 44 | 264 | 0.0 | 1.7 | 0.00 | 0.00 | 0.00 | 93 | 1018.5 |
| 20260507105028 | 44 | 255 | 0.0 | 0.9 | 0.00 | 0.00 | 0.00 | 93 | 1018.5 |
| 20260507104528 | 44 | 245 | 0.0 | 0.9 | 0.00 | 0.00 | 0.00 | 93 | 1018.5 |
| 20260507104028 | 45 | 256 | 0.0 | 0.0 | 0.00 | 0.00 | 0.00 | 93 | 1018.5 |
| 20260507103528 | 45 | 248 | 0.0 | 1.7 | 0.00 | 0.00 | 0.00 | 93 | 1018.5 |
| 20260507103028 | 45 | 267 | 0.0 | 0.0 | 0.00 | 0.00 | 0.00 | 93 | 1018.5 |
| 20260507102528 | 45 | 251 | 0.0 | 0.9 | 0.00 | 0.00 | 0.00 | 93 | 1018.5 |
| 20260507102028 | 45 | 234 | 0.0 | 0.9 | 0.00 | 0.00 | 0.00 | 93 | 1018.5 |
| 20260507101528 | 45 | 238 | 0.0 | 0.9 | 0.00 | 0.00 | 0.00 | 93 | 1018.5 |
| 20260507101028 | 45 | 231 | 0.0 | 0.9 | 0.00 | 0.00 | 0.00 | 93 | 1018.6 |
| 20260507100528 | 45 | 237 | 0.0 | 0.0 | 0.00 | 0.00 | 0.00 | 93 | 1018.6 |
| 20260507100028 | 45 | 244 | 0.0 | 0.9 | 0.00 | 0.00 | 0.00 | 93 | 1018.7 |
| 20260507095528 | 45 | 251 | 0.0 | 0.0 | 0.00 | 0.00 | 0.00 | 92 | 1018.7 |
| 20260507095028 | 45 | 251 | 0.0 | 0.0 | 0.00 | 0.00 | 0.00 | 92 | 1018.6 |
| 20260507094528 | 46 | 252 | 0.0 | 0.0 | 0.00 | 0.00 | 0.00 | 92 | 1018.5 |
| 20260507094028 | 46 | 252 | 0.0 | 0.0 | 0.00 | 0.00 | 0.00 | 92 | 1018.5 |
| 20260507093528 | 46 | 247 | 0.0 | 0.9 | 0.00 | 0.00 | 0.00 | 92 | 1018.4 |
| 20260507093028 | 46 | 242 | 0.0 | 0.0 | 0.00 | 0.00 | 0.00 | 91 | 1018.3 |
| 20260507092528 | 46 | 258 | 0.0 | 0.0 | 0.00 | 0.00 | 0.00 | 90 | 1018.3 |
| 20260507092028 | 46 | 288 | 0.0 | 0.0 | 0.00 | 0.00 | 0.00 | 90 | 1018.4 |
| 20260507091528 | 46 | 303 | 0.0 | 0.9 | 0.00 | 0.00 | 0.00 | 90 | 1018.3 |
| 20260507091028 | 46 | 228 | 0.0 | 0.9 | 0.00 | 0.00 | 0.00 | 90 | 1018.2 |
| 20260507085528 | 47 | 242 | 0.0 | 0.0 | 0.00 | 0.00 | 0.00 | 87 | 1018.3 |
| 20260507085028 | 47 | 240 | 0.0 | 0.9 | 0.00 | 0.00 | 0.00 | 87 | 1018.6 |
| 20260507084528 | 47 | 221 | 0.0 | 0.9 | 0.00 | 0.00 | 0.00 | 86 | 1018.4 |
| 20260507084028 | 47 | 198 | 0.0 | 0.0 | 0.00 | 0.00 | 0.00 | 86 | 1018.3 |
| 20260507083528 | 48 | 271 | 0.0 | 0.0 | 0.00 | 0.00 | 0.00 | 85 | 1018.4 |
| 20260507083028 | 48 | 268 | 0.0 | 0.0 | 0.00 | 0.00 | 0.00 | 86 | 1018.6 |
| 20260507082528 | 48 | 202 | 0.0 | 0.0 | 0.00 | 0.00 | 0.00 | 86 | 1018.6 |
| 20260507082028 | 48 | 251 | 0.0 | 0.0 | 0.00 | 0.00 | 0.00 | 85 | 1018.7 |
| 20260507081528 | 48 | 265 | 0.0 | 2.6 | 0.00 | 0.00 | 0.00 | 83 | 1018.9 |
| 20260507081028 | 48 | 295 | 0.9 | 1.7 | 0.00 | 0.00 | 0.00 | 82 | 1018.9 |
| 20260507080528 | 48 | 301 | 0.9 | 1.7 | 0.00 | 0.00 | 0.00 | 83 | 1018.8 |
| 20260507080029 | 48 | 293 | 0.0 | 0.0 | 0.00 | 0.00 | 0.00 | 83 | 1018.7 |
| 20260507075028 | 47 | 315 | 0.0 | 1.7 | 0.00 | 0.00 | 0.00 | 81 | 1018.5 |
| 20260507074528 | 47 | 320 | 0.0 | 0.0 | 0.00 | 0.00 | 0.00 | 80 | 1018.5 |
| 20260507074028 | 47 | 342 | 0.0 | 0.0 | 0.00 | 0.00 | 0.00 | 79 | 1018.5 |
| 20260507073528 | 47 | 335 | 0.0 | 0.0 | 0.00 | 0.00 | 0.00 | 78 | 1018.5 |
| 20260507073028 | 47 | 312 | 0.0 | 0.0 | 0.00 | 0.00 | 0.00 | 78 | 1018.6 |
| 20260507072528 | 47 | 287 | 0.0 | 1.7 | 0.00 | 0.00 | 0.00 | 80 | 1018.7 |
| 20260507072028 | 47 | 227 | 0.0 | 0.0 | 0.00 | 0.00 | 0.00 | 79 | 1018.5 |
| 20260507071528 | 47 | 232 | 0.0 | 0.0 | 0.00 | 0.00 | 0.00 | 78 | 1018.6 |
| 20260507071028 | 48 | 232 | 0.0 | 0.0 | 0.00 | 0.00 | 0.00 | 78 | 1018.7 |
| 20260507070528 | 48 | 232 | 0.0 | 0.0 | 0.00 | 0.00 | 0.00 | 77 | 1018.7 |
| 20260507070028 | 48 | 232 | 0.0 | 0.0 | 0.00 | 0.00 | 0.00 | 76 | 1018.8 |
| 20260507065528 | 48 | 257 | 0.0 | 0.0 | 0.00 | 0.00 | 0.00 | 77 | 1018.8 |
| 20260507065028 | 48 | 298 | 0.0 | 0.9 | 0.00 | 0.00 | 0.00 | 77 | 1018.9 |
| 20260507064528 | 48 | 277 | 0.0 | 0.9 | 0.00 | 0.00 | 0.00 | 78 | 1019.1 |
| 20260507064028 | 48 | 262 | 0.0 | 0.0 | 0.00 | 0.00 | 0.00 | 78 | 1018.9 |
| 20260507063528 | 48 | 176 | 0.0 | 0.0 | 0.00 | 0.00 | 0.00 | 78 | 1018.9 |
| 20260507063028 | 49 | 228 | 0.0 | 0.0 | 0.00 | 0.00 | 0.00 | 78 | 1019.2 |
| 20260507062528 | 49 | 250 | 0.0 | 0.0 | 0.00 | 0.00 | 0.00 | 78 | 1019.2 |
| 20260507062028 | 49 | 285 | 0.0 | 0.9 | 0.00 | 0.00 | 0.00 | 77 | 1019.2 |
| 20260507061529 | 49 | 270 | 0.0 | 0.9 | 0.00 | 0.00 | 0.00 | 76 | 1019.2 |
| 20260507061028 | 50 | 249 | 0.0 | 0.9 | 0.00 | 0.00 | 0.00 | 73 | 1019.2 |
| 20260507060528 | 49 | 300 | 0.0 | 1.7 | 0.00 | 0.00 | 0.00 | 72 | 1019.1 |
| 20260507060028 | 49 | 294 | 0.9 | 2.6 | 0.00 | 0.00 | 0.00 | 76 | 1019.1 |
| 20260507055528 | 49 | 248 | 0.0 | 0.9 | 0.00 | 0.00 | 0.00 | 77 | 1019.1 |
| 20260507054028 | 49 | 231 | 0.0 | 0.9 | 0.00 | 0.00 | 0.00 | 77 | 1018.8 |
| 20260507053528 | 49 | 222 | 0.0 | 0.9 | 0.00 | 0.00 | 0.00 | 77 | 1018.8 |
| 20260507053028 | 49 | 215 | 0.0 | 0.9 | 0.00 | 0.00 | 0.00 | 77 | 1018.6 |
| 20260507052528 | 49 | 229 | 0.0 | 0.0 | 0.00 | 0.00 | 0.00 | 77 | 1018.6 |
| 20260507051028 | 50 | 170 | 0.0 | 0.0 | 0.00 | 0.00 | 0.00 | 74 | 1018.7 |
| 20260507050528 | 50 | 183 | 0.0 | 0.9 | 0.00 | 0.00 | 0.00 | 73 | 1018.6 |
| 20260507043028 | 51 | 199 | 0.0 | 0.9 | 0.00 | 0.00 | 0.00 | 70 | 1018.5 |
| 20260507042528 | 51 | 156 | 0.0 | 0.9 | 0.00 | 0.00 | 0.00 | 70 | 1018.5 |
| 20260507042028 | 51 | 197 | 0.0 | 0.9 | 0.00 | 0.00 | 0.00 | 69 | 1018.5 |
| 20260507041528 | 51 | 196 | 0.0 | 0.0 | 0.00 | 0.00 | 0.00 | 69 | 1018.5 |
| 20260507041028 | 52 | 68 | 0.0 | 2.6 | 0.00 | 0.00 | 0.00 | 70 | 1018.5 |
| 20260507040528 | 52 | 83 | 0.9 | 1.7 | 0.00 | 0.00 | 0.00 | 70 | 1018.5 |
| 20260507040028 | 52 | 99 | 0.9 | 1.7 | 0.00 | 0.00 | 0.00 | 69 | 1018.5 |
| 20260507035528 | 52 | 97 | 0.0 | 1.7 | 0.00 | 0.00 | 0.00 | 67 | 1018.7 |
| 20260507035028 | 52 | 138 | 0.0 | 0.0 | 0.00 | 0.00 | 0.00 | 66 | 1018.6 |
| 20260507034528 | 53 | 108 | 0.0 | 0.9 | 0.00 | 0.00 | 0.00 | 65 | 1018.5 |
| 20260507034028 | 53 | 86 | 0.9 | 2.6 | 0.00 | 0.00 | 0.00 | 64 | 1018.5 |
| 20260507033528 | 52 | 102 | 0.0 | 1.7 | 0.00 | 0.00 | 0.00 | 64 | 1018.5 |
| 20260507033028 | 52 | 85 | 0.0 | 1.7 | 0.00 | 0.00 | 0.00 | 66 | 1018.4 |
| 20260507032528 | 52 | 101 | 0.0 | 0.9 | 0.00 | 0.00 | 0.00 | 66 | 1018.4 |
| 20260507032028 | 53 | 81 | 0.0 | 0.9 | 0.00 | 0.00 | 0.00 | 67 | 1018.2 |
| 20260507031528 | 53 | 92 | 0.9 | 1.7 | 0.00 | 0.00 | 0.00 | 67 | 1018.1 |
| 20260507030028 | 53 | 90 | 0.0 | 0.9 | 0.00 | 0.00 | 0.00 | 64 | 1018.0 |
| 20260507025528 | 54 | 85 | 0.0 | 0.9 | 0.00 | 0.00 | 0.00 | 62 | 1018.0 |
| 20260507025028 | 54 | 100 | 0.0 | 0.9 | 0.00 | 0.00 | 0.00 | 62 | 1017.9 |
| 20260507024528 | 54 | 59 | 0.0 | 0.9 | 0.00 | 0.00 | 0.00 | 61 | 1017.8 |
| 20260507022028 | 55 | 50 | 0.0 | 2.6 | 0.00 | 0.00 | 0.00 | 59 | 1017.8 |
| 20260507021528 | 55 | 38 | 0.9 | 2.6 | 0.00 | 0.00 | 0.00 | 58 | 1017.7 |
| 20260507021028 | 55 | 70 | 0.0 | 1.7 | 0.00 | 0.00 | 0.00 | 57 | 1017.7 |
| 20260507020528 | 55 | 21 | 0.0 | 3.5 | 0.00 | 0.00 | 0.00 | 56 | 1017.6 |
| 20260507020028 | 56 | 46 | 0.0 | 2.6 | 0.00 | 0.00 | 0.00 | 56 | 1017.6 |
| 20260507015528 | 56 | 34 | 0.9 | 1.7 | 0.00 | 0.00 | 0.00 | 55 | 1017.6 |
| 20260507015028 | 56 | 41 | 0.0 | 1.7 | 0.00 | 0.00 | 0.00 | 54 | 1017.5 |
| 20260507014528 | 56 | 49 | 0.9 | 4.3 | 0.00 | 0.00 | 0.00 | 53 | 1017.4 |
| 20260507014028 | 56 | 44 | 0.9 | 4.3 | 0.00 | 0.00 | 0.00 | 52 | 1017.3 |
| 20260507013528 | 57 | 53 | 0.9 | 2.6 | 0.00 | 0.00 | 0.00 | 52 | 1017.3 |
| 20260507013028 | 57 | 38 | 0.9 | 2.6 | 0.00 | 0.00 | 0.00 | 51 | 1017.3 |
| 20260507012528 | 57 | 33 | 0.9 | 5.2 | 0.00 | 0.00 | 0.00 | 51 | 1017.2 |
| 20260507012028 | 57 | 63 | 0.9 | 6.1 | 0.00 | 0.00 | 0.00 | 51 | 1017.2 |
| 20260507011528 | 58 | 19 | 0.9 | 2.6 | 0.00 | 0.00 | 0.00 | 49 | 1017.1 |
| 20260507011028 | 58 | 310 | 0.9 | 4.3 | 0.00 | 0.00 | 0.00 | 48 | 1017.1 |
| 20260507010528 | 58 | 36 | 0.9 | 1.7 | 0.00 | 0.00 | 0.00 | 49 | 1017.0 |
| 20260507005028 | 58 | 48 | 1.7 | 3.5 | 0.00 | 0.00 | 0.00 | 48 | 1016.9 |
| 20260507004528 | 58 | 27 | 0.9 | 2.6 | 0.00 | 0.00 | 0.00 | 49 | 1016.9 |
| 20260507004028 | 58 | 38 | 1.7 | 7.0 | 0.00 | 0.00 | 0.00 | 50 | 1016.7 |
| 20260507003528 | 59 | 40 | 0.9 | 2.6 | 0.00 | 0.00 | 0.00 | 50 | 1016.7 |
| 20260507003028 | 59 | 32 | 1.7 | 5.2 | 0.00 | 0.00 | 0.00 | 49 | 1016.6 |
| 20260507002528 | 59 | 62 | 2.6 | 6.1 | 0.00 | 0.00 | 0.00 | 48 | 1016.5 |
| 20260507002028 | 59 | 52 | 2.6 | 6.1 | 0.00 | 0.00 | 0.00 | 47 | 1016.5 |
| 20260507001528 | 60 | 32 | 2.6 | 6.1 | 0.00 | 0.00 | 0.00 | 46 | 1016.5 |
| 20260507001028 | 60 | 31 | 1.7 | 5.2 | 0.00 | 0.00 | 0.00 | 45 | 1016.5 |
| 20260507000528 | 60 | 51 | 1.7 | 3.5 | 0.00 | 0.00 | 0.00 | 45 | 1016.5 |
| 20260507000028 | 60 | 36 | 1.7 | 5.2 | 0.00 | 0.00 | 0.00 | 45 | 1016.4 |
| 20260506235528 | 61 | 37 | 1.7 | 5.2 | 0.00 | 0.00 | 0.00 | 44 | 1016.4 |
| 20260506235028 | 61 | 57 | 1.7 | 7.0 | 0.00 | 0.00 | 0.00 | 45 | 1016.2 |
| 20260506234528 | 61 | 25 | 0.9 | 3.5 | 0.00 | 0.00 | 0.00 | 44 | 1016.3 |
| 20260506234028 | 61 | 28 | 2.6 | 6.1 | 0.00 | 0.00 | 0.00 | 43 | 1016.2 |
| 20260506233528 | 61 | 18 | 0.9 | 5.2 | 0.00 | 0.00 | 0.00 | 45 | 1016.2 |
| 20260506233028 | 61 | 45 | 2.6 | 7.8 | 0.00 | 0.00 | 0.00 | 44 | 1016.2 |
| 20260506232528 | 61 | 59 | 2.6 | 6.1 | 0.00 | 0.00 | 0.00 | 44 | 1016.2 |
| 20260506232028 | 61 | 46 | 3.5 | 7.8 | 0.00 | 0.00 | 0.00 | 44 | 1016.1 |
| 20260506231528 | 62 | 59 | 2.6 | 5.2 | 0.00 | 0.00 | 0.00 | 43 | 1016.0 |
| 20260506231028 | 62 | 46 | 2.6 | 7.0 | 0.00 | 0.00 | 0.00 | 43 | 1015.9 |
| 20260506230528 | 62 | 52 | 3.5 | 7.0 | 0.00 | 0.00 | 0.00 | 42 | 1015.9 |
| 20260506230028 | 63 | 61 | 2.6 | 7.0 | 0.00 | 0.00 | 0.00 | 42 | 1015.8 |
| 20260506225528 | 63 | 51 | 3.5 | 7.8 | 0.00 | 0.00 | 0.00 | 42 | 1015.8 |
| 20260506225028 | 63 | 66 | 3.5 | 7.0 | 0.00 | 0.00 | 0.00 | 41 | 1015.7 |
| 20260506224528 | 63 | 51 | 3.5 | 7.0 | 0.00 | 0.00 | 0.00 | 42 | 1015.7 |
| 20260506224028 | 63 | 42 | 2.6 | 6.1 | 0.00 | 0.00 | 0.00 | 42 | 1015.6 |
| 20260506223528 | 63 | 16 | 2.6 | 5.2 | 0.00 | 0.00 | 0.00 | 42 | 1015.5 |
| 20260506223028 | 64 | 34 | 2.6 | 5.2 | 0.00 | 0.00 | 0.00 | 41 | 1015.5 |
| 20260506222528 | 63 | 3 | 1.7 | 3.5 | 0.00 | 0.00 | 0.00 | 42 | 1015.5 |
| 20260506222028 | 63 | 16 | 1.7 | 7.0 | 0.00 | 0.00 | 0.00 | 43 | 1015.5 |
| 20260506221528 | 63 | 39 | 1.7 | 6.1 | 0.00 | 0.00 | 0.00 | 42 | 1015.5 |
| 20260506221028 | 63 | 40 | 2.6 | 7.0 | 0.00 | 0.00 | 0.00 | 42 | 1015.5 |
| 20260506220528 | 64 | 47 | 2.6 | 6.1 | 0.00 | 0.00 | 0.00 | 41 | 1015.5 |
| 20260506220028 | 64 | 45 | 2.6 | 7.0 | 0.00 | 0.00 | 0.00 | 43 | 1015.5 |
| 20260506215528 | 64 | 55 | 2.6 | 6.1 | 0.00 | 0.00 | 0.00 | 42 | 1015.5 |
| 20260506215028 | 63 | 45 | 2.6 | 7.0 | 0.00 | 0.00 | 0.00 | 44 | 1015.5 |
| 20260506214528 | 64 | 356 | 1.7 | 6.1 | 0.00 | 0.00 | 0.00 | 42 | 1015.6 |
| 20260506214028 | 64 | 32 | 2.6 | 7.8 | 0.00 | 0.00 | 0.00 | 42 | 1015.6 |
| 20260506213528 | 64 | 39 | 2.6 | 7.0 | 0.00 | 0.00 | 0.00 | 42 | 1015.6 |
| 20260506213028 | 65 | 45 | 3.5 | 7.0 | 0.00 | 0.00 | 0.00 | 41 | 1015.6 |
| 20260506212528 | 64 | 48 | 3.5 | 7.8 | 0.00 | 0.00 | 0.00 | 43 | 1015.6 |
| 20260506212028 | 64 | 44 | 2.6 | 7.8 | 0.00 | 0.00 | 0.00 | 43 | 1015.7 |
| 20260506211528 | 65 | 21 | 2.6 | 5.2 | 0.00 | 0.00 | 0.00 | 41 | 1015.6 |
| 20260506211028 | 65 | 34 | 1.7 | 4.3 | 0.00 | 0.00 | 0.00 | 40 | 1015.6 |
| 20260506210528 | 64 | 30 | 2.6 | 5.2 | 0.00 | 0.00 | 0.00 | 42 | 1015.7 |
| 20260506210028 | 64 | 15 | 2.6 | 7.8 | 0.00 | 0.00 | 0.00 | 42 | 1015.7 |
| 20260506205528 | 65 | 50 | 3.5 | 8.7 | 0.00 | 0.00 | 0.00 | 41 | 1015.7 |
| 20260506205028 | 65 | 30 | 2.6 | 7.8 | 0.00 | 0.00 | 0.00 | 41 | 1015.8 |
| 20260506204528 | 65 | 33 | 3.5 | 10.4 | 0.00 | 0.00 | 0.00 | 41 | 1015.8 |
| 20260506204028 | 65 | 27 | 2.6 | 7.8 | 0.00 | 0.00 | 0.00 | 41 | 1015.8 |
| 20260506203528 | 65 | 31 | 1.7 | 5.2 | 0.00 | 0.00 | 0.00 | 42 | 1016.0 |
| 20260506203028 | 65 | 30 | 3.5 | 8.7 | 0.00 | 0.00 | 0.00 | 41 | 1016.1 |
| 20260506202528 | 65 | 342 | 3.5 | 8.7 | 0.00 | 0.00 | 0.00 | 40 | 1016.1 |
| 20260506202028 | 65 | 50 | 2.6 | 7.0 | 0.00 | 0.00 | 0.00 | 42 | 1016.3 |
| 20260506201528 | 64 | 78 | 4.3 | 9.6 | 0.00 | 0.00 | 0.00 | 41 | 1016.3 |
| 20260506201028 | 64 | 43 | 2.6 | 7.8 | 0.00 | 0.00 | 0.00 | 42 | 1016.3 |
| 20260506200528 | 63 | 65 | 4.3 | 7.8 | 0.00 | 0.00 | 0.00 | 43 | 1016.2 |
| 20260506200028 | 64 | 53 | 4.3 | 7.8 | 0.00 | 0.00 | 0.00 | 43 | 1016.3 |
| 20260506195528 | 64 | 67 | 3.5 | 7.8 | 0.00 | 0.00 | 0.00 | 43 | 1016.2 |
| 20260506195028 | 64 | 66 | 3.5 | 6.1 | 0.00 | 0.00 | 0.00 | 43 | 1016.3 |
| 20260506194528 | 64 | 53 | 4.3 | 8.7 | 0.00 | 0.00 | 0.00 | 44 | 1016.3 |
| 20260506194028 | 64 | 12 | 2.6 | 5.2 | 0.00 | 0.00 | 0.00 | 43 | 1016.4 |
| 20260506193528 | 63 | 75 | 2.6 | 7.0 | 0.00 | 0.00 | 0.00 | 44 | 1016.4 |
| 20260506193028 | 63 | 49 | 4.3 | 7.8 | 0.00 | 0.00 | 0.00 | 45 | 1016.4 |
| 20260506192528 | 63 | 63 | 2.6 | 8.7 | 0.00 | 0.00 | 0.00 | 47 | 1016.4 |
| 20260506192028 | 62 | 18 | 1.7 | 5.2 | 0.00 | 0.00 | 0.00 | 48 | 1016.6 |
| 20260506191528 | 62 | 28 | 2.6 | 4.3 | 0.00 | 0.00 | 0.00 | 47 | 1016.7 |
| 20260506191029 | 61 | 75 | 4.3 | 7.0 | 0.00 | 0.00 | 0.00 | 47 | 1016.8 |
| 20260506190528 | 61 | 76 | 5.2 | 7.0 | 0.00 | 0.00 | 0.00 | 48 | 1017.0 |
| 20260506190028 | 61 | 59 | 4.3 | 9.6 | 0.00 | 0.00 | 0.00 | 49 | 1017.0 |
| 20260506185528 | 61 | 45 | 3.5 | 6.1 | 0.00 | 0.00 | 0.00 | 48 | 1017.1 |
| 20260506185028 | 62 | 40 | 2.6 | 7.0 | 0.00 | 0.00 | 0.00 | 48 | 1017.1 |
| 20260506184528 | 62 | 59 | 1.7 | 6.1 | 0.00 | 0.00 | 0.00 | 47 | 1017.2 |
| 20260506184028 | 63 | 62 | 3.5 | 8.7 | 0.00 | 0.00 | 0.00 | 45 | 1017.2 |
| 20260506183528 | 63 | 59 | 5.2 | 9.6 | 0.00 | 0.00 | 0.00 | 45 | 1017.2 |
| 20260506183028 | 62 | 80 | 5.2 | 8.7 | 0.00 | 0.00 | 0.00 | 47 | 1017.2 |
| 20260506182528 | 61 | 79 | 6.1 | 9.6 | 0.00 | 0.00 | 0.00 | 45 | 1017.3 |
| 20260506182028 | 61 | 71 | 6.1 | 8.7 | 0.00 | 0.00 | 0.00 | 46 | 1017.3 |
| 20260506181527 | 61 | 75 | 5.2 | 9.6 | 0.00 | 0.00 | 0.00 | 48 | 1017.4 |
| 20260506181028 | 61 | 24 | 2.6 | 7.0 | 0.00 | 0.00 | 0.00 | 49 | 1017.5 |
| 20260506180528 | 62 | 29 | 2.6 | 7.8 | 0.00 | 0.00 | 0.00 | 48 | 1017.5 |
| 20260506175028 | 61 | 75 | 5.2 | 10.4 | 0.00 | 0.00 | 0.00 | 48 | 1017.5 |
| 20260506174528 | 61 | 75 | 6.1 | 13.0 | 0.00 | 0.00 | 0.00 | 47 | 1017.5 |
| 20260506174028 | 61 | 52 | 5.2 | 7.8 | 0.00 | 0.00 | 0.00 | 47 | 1017.4 |
| 20260506173528 | 60 | 62 | 4.3 | 7.0 | 0.00 | 0.00 | 0.00 | 48 | 1017.4 |
| 20260506173028 | 60 | 77 | 6.1 | 12.2 | 0.00 | 0.00 | 0.00 | 47 | 1017.6 |
| 20260506172528 | 61 | 59 | 5.2 | 9.6 | 0.00 | 0.00 | 0.00 | 47 | 1017.7 |
| 20260506172028 | 61 | 59 | 3.5 | 7.8 | 0.00 | 0.00 | 0.00 | 49 | 1017.9 |
| 20260506171528 | 60 | 65 | 5.2 | 9.6 | 0.00 | 0.00 | 0.00 | 50 | 1018.0 |
| 20260506171028 | 61 | 72 | 5.2 | 9.6 | 0.00 | 0.00 | 0.00 | 49 | 1018.1 |
| 20260506170528 | 60 | 66 | 4.3 | 8.7 | 0.00 | 0.00 | 0.00 | 50 | 1018.2 |
| 20260506170028 | 60 | 74 | 5.2 | 10.4 | 0.00 | 0.00 | 0.00 | 50 | 1018.3 |
| 20260506165528 | 60 | 43 | 3.5 | 8.7 | 0.00 | 0.00 | 0.00 | 51 | 1018.3 |
| 20260506165028 | 60 | 84 | 5.2 | 7.8 | 0.00 | 0.00 | 0.00 | 50 | 1018.3 |
| 20260506164528 | 60 | 73 | 4.3 | 7.0 | 0.00 | 0.00 | 0.00 | 50 | 1018.3 |
| 20260506164028 | 60 | 75 | 4.3 | 9.6 | 0.00 | 0.00 | 0.00 | 51 | 1018.3 |
| 20260506163528 | 60 | 67 | 3.5 | 7.0 | 0.00 | 0.00 | 0.00 | 52 | 1018.2 |
| 20260506163028 | 58 | 15 | 2.6 | 7.0 | 0.00 | 0.00 | 0.00 | 54 | 1018.2 |
| 20260506162528 | 58 | 56 | 2.6 | 7.0 | 0.00 | 0.00 | 0.00 | 56 | 1018.1 |
| 20260506162028 | 57 | 33 | 2.6 | 5.2 | 0.00 | 0.00 | 0.00 | 54 | 1018.2 |
| 20260506161528 | 58 | 24 | 2.6 | 6.1 | 0.00 | 0.00 | 0.00 | 55 | 1018.1 |
| 20260506161028 | 58 | 54 | 3.5 | 8.7 | 0.00 | 0.00 | 0.00 | 55 | 1018.2 |
| 20260506160528 | 58 | 34 | 2.6 | 6.1 | 0.00 | 0.00 | 0.00 | 55 | 1018.1 |
| 20260506160028 | 58 | 41 | 3.5 | 7.0 | 0.00 | 0.00 | 0.00 | 56 | 1018.0 |
| 20260506155528 | 58 | 54 | 3.5 | 8.7 | 0.00 | 0.00 | 0.00 | 53 | 1017.9 |
| 20260506155028 | 58 | 37 | 2.6 | 7.8 | 0.00 | 0.00 | 0.00 | 53 | 1017.9 |
| 20260506154528 | 57 | 15 | 1.7 | 5.2 | 0.00 | 0.00 | 0.00 | 55 | 1017.9 |
| 20260506154028 | 57 | 47 | 3.5 | 7.0 | 0.00 | 0.00 | 0.00 | 56 | 1017.7 |
| 20260506153528 | 56 | 65 | 4.3 | 8.7 | 0.00 | 0.00 | 0.00 | 56 | 1017.5 |
| 20260506153028 | 56 | 85 | 5.2 | 7.8 | 0.00 | 0.00 | 0.00 | 55 | 1017.3 |
| 20260506152528 | 57 | 60 | 4.3 | 9.6 | 0.00 | 0.00 | 0.00 | 55 | 1017.2 |
| 20260506152028 | 56 | 41 | 2.6 | 5.2 | 0.00 | 0.00 | 0.00 | 58 | 1017.2 |
| 20260506151528 | 55 | 53 | 3.5 | 7.8 | 0.00 | 0.00 | 0.00 | 60 | 1017.2 |
| 20260506151028 | 55 | 77 | 5.2 | 7.8 | 0.00 | 0.00 | 0.00 | 58 | 1017.1 |
| 20260506150528 | 54 | 70 | 4.3 | 8.7 | 0.00 | 0.00 | 0.00 | 61 | 1017.0 |